Location: Trebic
(49.2170°N, 15.8830°E)
Time: 00:37:35
(UTC+01:00)

Transit 4A - Pass Details

Date: 30 October 2020
Orbit: 862 x 982 km, 66.8° (Epoch: 28 November)

Event Time Altitude Azimuth Distance (km) Brightness Sun altitude
Rises 22:01:52 0° 324° (NW) 3,696 11.7 -49.6°
Reaches altitude 10° 22:04:35 10° 330° (NNW) 2,745 10.8 -49.8°
Enters shadow 22:04:58 12° 332° (NNW) 2,613 10.7 -49.9°
